Location: Peebles
(55.6412°N, 3.1714°W)
Time: 15:04:00
(UTC+01:00)

Cosmos 1238 Rocket - Pass Details

Date: 26 September 2021
Orbit: 373 x 1019 km, 82.9° (Epoch: 17 October)

Event Time Altitude Azimuth Distance (km) Brightness Sun altitude
Rises 19:56:59 0° 182° (S) 3,637 6.9 -8.7°
Reaches altitude 10° 19:59:39 10° 181° (S) 2,630 6.2 -9.1°
Maximum altitude 20:05:39 73° 98° (E) 875 3.6 -9.9°
Drops below altitude 10° 20:10:45 10° 15° (NNE) 2,248 5.9 -10.7°
Sets 20:12:53 0° 13° (NNE) 3,075 6.6 -10.9°
